Regional Weather Roundup
Issued by NWS

Home | Current Version | Previous Version | Text Only | Print | Product List | Glossary Off
Versions: 1 2 3 4 5 6 7 8 9 10 11 12 13 14 15 16 17 18 19 20 21 22 23 24 25 26 27 28 29 30 31 32 33 34 35 36 37 38 39 40 41 42 43 44 45 46 47 48 49 50

000
ASUS45 KABQ 061901
RWRNM
NEW MEXICO REGIONAL WEATHER ROUNDUP
NATIONAL WEATHER SERVICE ALBUQUERQUE NM
1200 PM MST SAT FEB 06 2016

NOTE: "FAIR" MEANS FEW OR NO CLOUDS BELOW 12,000 FEET AGL WITH NO
       SIGNIFICANT WEATHER OR OBSTRUCTIONS TO VISION.

      THIS PRODUCT IS RELEASED AS TWO VERSIONS.  ONE VERSION NEAR
      THE TOP OF THE HOUR CONTAINING PRELIMINARY DATA FROM ALBUQUERQUE
      AND OTHER STATIONS.  A FINAL VERSION WITH ADDITIONAL DATA IS
      ISSUED ABOUT 10 MINUTES AFTER THE HOUR.

NMZ501-503-504-510>518-062000-
NORTHWEST PLATEAU/NORTHCENTRAL MOUNTAINS

CITY           SKY/WX    TMP DP  RH WIND       PRES   REMARKS
FARMINGTON     SUNNY     31  15  52 SW5       30.49F WCI  26
SANTA FE       SUNNY     38   8  29 NW15G23   30.40F WCI  29
TAOS           SUNNY     28   9  43 CALM      30.43F

$$
NMZ402-403-502-505>509-062000-
WESTCENTRAL MOUNTAINS/SOUTHWEST MOUNTAINS

CITY           SKY/WX    TMP DP  RH WIND       PRES   REMARKS
GALLUP         SUNNY     37  13  37 NW3       30.46F
SILVER CITY      N/A     46   0  14 S6        30.46F

$$
NMZ407-409-411-412-062000-
SOUTHERN DESERTS

CITY           SKY/WX    TMP DP  RH WIND       PRES   REMARKS
DEMING         SUNNY     48   5  17 SE5       30.46F
HOLLOMAN AFB   SUNNY     48  10  21 NW14      30.42F
ALAMOGORDO     SUNNY     50   3  14 NW16      30.43F
T OR C         SUNNY     44   8  23 VRB5      30.44F

$$
NMZ519>523-062000-
CENTRAL VALLEYS/CENTRAL HIGHLANDS

CITY           SKY/WX    TMP DP  RH WIND       PRES   REMARKS
ALBUQUERQUE    SUNNY     43   8  23 NW13      30.45F
DOUBLE EAGLE   SUNNY     43   9  24 NW10      30.44F
MORIARTY ARPT  FAIR      42  11  28 NW15      30.40F
CLINES CORNERS SUNNY     34  13  41 NW25G32   30.33F WCI  21
BELEN          FAIR      42   8  24 N6        30.46F
SOCORRO        NOT AVBL

$$
NMZ524>526-539-540-062000-
SOUTHCENTRAL MOUNTAINS

CITY           SKY/WX    TMP DP  RH WIND       PRES   REMARKS
RUIDOSO          N/A     48   0  13 NW17G25   30.39F

$$
NMZ527>531-062000-
NORTHEAST HIGHLANDS/NORTHEAST PLAINS

CITY           SKY/WX    TMP DP  RH WIND       PRES   REMARKS
LAS VEGAS      SUNNY     42   8  24 SE8       30.29F
RATON          SUNNY     43   9  24 VRB3      30.26F
CLAYTON        SUNNY     53   4  13 SW9G22    30.26F

$$
NMZ532>537-062000-
EASTCENTRAL PLAINS

CITY           SKY/WX    TMP DP  RH WIND       PRES   REMARKS
TUCUMCARI      SUNNY     50  13  22 S7        30.31F
CANNON AFB     NOT AVBL
CLOVIS AIRPORT SUNNY     46  16  29 SW10      30.35F

$$
NMZ028-029-538-062000-
SOUTHEAST PLAINS

CITY           SKY/WX    TMP DP  RH WIND       PRES   REMARKS
ROSWELL        SUNNY     50  10  20 VRB6      30.36F
ARTESIA        SUNNY     52  14  22 E7        30.37F
CARLSBAD       SUNNY     52  14  22 E3        30.37F
HOBBS          SUNNY     54   9  16 W7        30.39F


$$



USA.gov is the U.S. government's official web portal to all federal, state and local government web resources and services.